Tracking 29892 objects as of 21-Nov-2024
HD Live streaming from Space Station
objects crossing your sky now

SL-8 R/B

Track SL-8 R/B now!
10-day predictions


NORAD ID: 4784
Int'l Code: 1970-102B
Perigee: 962.1 km
Apogee: 1,001.9 km
Inclination: 74.0 °
Period: 104.6 minutes
Semi major axis: 7352 km
RCS: 5.0516 m2 (large)
Launch date: December 2, 1970
Source: Commonwealth of Independent States (former USSR) (CIS)
Launch site: PLESETSK MISSILE AND SPACE COMPLEX (PKMTR)

Note: This is a ROCKET BODY
Your satellite tracking list
Your tracking list is empty




NASA's NSSDC Master Catalog

Two Line Element Set (TLE):
1 04784U 70102B   24325.57058309  .00000123  00000-0  14787-3 0  9992
2 04784  74.0271 148.7578 0027057 287.4951  95.3966 13.76918978710211
Source of the keplerian elements: AFSPC